User: anonymous   Login
Location: Bílinka
(49.3579°N, 14.3767°E)
Time: 14:52:51
(UTC+00:00)
Language:

FENGYUN 1C DEB - Orbit

View from above orbital plane
View from above orbital plane
View from above satellite
View from above satellite

Ground track
Ground track

The orbit data is extracted from the following two-line orbital elements,

1 31685U 99025CCT 24053.37741899  .00000276  00000-0  18347-3 0  9991
2 31685  98.8030  89.0491 0015638 293.0873  66.8649 14.09243503858011
Epoch (UTC): 22 February 2024 09:03:29
Eccentricity: 0.0015638
inclination: 98.8030°
perigee height: 850 km
apogee height: 873 km
right ascension of ascending node: 89.0491°
argument of perigee: 293.0873°
revolutions per day: 14.09243503
mean anomaly at epoch: 66.8649°
orbit number at epoch: 85801

The dashed part of the orbit path shows where the satellite is in the earth's shadow,  

DLR